Flag for Falkland Islands Weather past 2 weeks in Stanley, Falkland Islands

Now
37 °F

Passing clouds.


Feels Like: 28 °F
Forecast: 39 / 41 °F
Wind: 16 mph from North

Location: Mount Pleasant Airport

Current Time: Aug 28, 2015 at 2:36:17 AM

Latest Report: Aug 28, 2015 at 1:50 AM


Visibility: N/A

Pressure: 29.47 "Hg

Humidity: 93%

Dew point: 36 °F

Location of StanleyLocation

Historic Weather in Stanley — Graph

°F

Stanley temperature yesterday

Maximum temperature yesterday: 43 °F (at 1:50 PM)
Minimum temperature yesterday: 36 °F (at 4:50 AM)
Average temperature yesterday: 39 °F

Past Weeks' High & Low Weather Summary

 TemperatureHumidityPressure
High48 °F (Aug 16, 10:50 PM)100% (Aug 18, 1:50 AM)30.27 "Hg (Aug 18, 1:50 AM)
Low27 °F (Aug 19, 3:50 AM)45% (Aug 17, 10:50 AM)28.65 "Hg (Aug 16, 10:50 PM)
Average36 °F84%29.61 "Hg
* Reported Aug 13 12:50 AM — Aug 28 12:50 AM, Stanley, Weather by CustomWeather, © 2015

Note: Actual official high and low records may vary slightly from our data, if they occured in-between our weather recording intervals... More about our weather records

Advertising

Stanley weather history for previous 24 hours

 ConditionsComfort  
Time TempWeatherWind HumidityBarometerVisibility
12:50 AM
Fri, Aug 28
37 °FPartly cloudy.14 mph93%29.50 "HgN/A
11:50 PM
Thu, Aug 27
39 °FPassing clouds.9 mph87%29.53 "HgN/A
10:50 PM39 °FPassing clouds.3 mph87%29.56 "HgN/A
9:50 PM41 °FPassing clouds.5 mph81%29.56 "HgN/A
8:50 PM39 °FPassing clouds.2 mph93%29.59 "HgN/A
7:50 PM41 °FPassing clouds.7 mph87%29.59 "HgN/A
6:50 PM41 °FPassing clouds.7 mph87%29.59 "HgN/A
5:50 PM41 °FMore clouds than sun.5 mph93%29.59 "HgN/A
4:50 PM41 °FDrizzle. Low clouds.7 mph100%29.59 "HgN/A
3:50 PM43 °FDrizzle. Broken clouds.9 mph93%29.59 "Hg4 mi
2:50 PM43 °FPartly sunny.10 mph87%29.59 "HgN/A
1:50 PM43 °FPartly sunny.9 mph87%29.62 "HgN/A
12:50 PM41 °FBroken clouds.14 mph93%29.62 "HgN/A
11:50 AM39 °FBroken clouds.12 mph100%29.62 "HgN/A
10:50 AM37 °FFog.8 mph100%29.65 "HgN/A
9:50 AM37 °FDrizzle. Low clouds.10 mph100%29.62 "HgN/A
8:50 AM37 °FFog.12 mph93%29.62 "HgN/A
7:50 AM36 °FDrizzle. Cloudy.13 mph100%29.62 "Hg4 mi
6:50 AM37 °FDrizzle. Mostly cloudy.8 mph100%29.62 "Hg1 mi
5:50 AM36 °FFog.9 mph100%29.62 "Hg1 mi
4:50 AM36 °FFog.9 mph100%29.59 "Hg1 mi
3:50 AM37 °FFog.7 mph93%29.59 "Hg1 mi
2:50 AM39 °FFog.6 mph93%29.59 "Hg0 mi
Weather by CustomWeather, © 2015

See weather overviewHow to use our weather pages